Location: Newark
(43.4600°N, 5.2486°E)
Time: 03:08:02
(UTC+00:00)

ISS - Visible Passes

Search period start: 11 December 2019 00:00
Search period end: 21 December 2019 00:00
Orbit: 411 x 421 km, 51.6° (Epoch: 11 December)

Date Brightness Start Highest point End Pass type
(mag) Time Alt. Az. Time Alt. Az. Time Alt. Az.
11 Dec -3.5 16:37:28 10° WNW 16:40:49 75° SW 16:44:09 10° SE visible
12 Dec -0.7 17:26:31 10° W 17:28:45 17° SW 17:31:00 10° S visible
13 Dec -1.4 16:37:31 10° WNW 16:40:26 28° SW 16:43:21 10° SSE visible
15 Dec 0.2 16:39:01 10° WSW 16:39:49 11° SW 16:40:37 10° SW visible
20 Dec -0.6 06:07:13 10° S 06:09:21 16° SE 06:11:29 10° E visible
